Regional Weather Roundup
Issued by NWS

Home | Current Version | Previous Version | Graphics & Text | Print | Product List | Glossary On
Versions: 1 2 3 4 5 6 7 8 9 10 11 12 13 14 15 16 17 18 19 20 21 22 23 24 25 26 27 28 29 30 31 32 33 34 35 36 37 38 39 40 41 42 43 44 45 46 47 48 49 50
000
ASUS43 KBIS 211410
RWRND

NORTH DAKOTA REGIONAL WEATHER ROUNDUP
NATIONAL WEATHER SERVICE BISMARCK ND
800 AM CST SUN DEC 21 2014

NOTE: "FAIR" INDICATES FEW OR NO CLOUDS BELOW 12,000 FEET WITH NO
SIGNIFICANT WEATHER AND/OR OBSTRUCTIONS TO VISIBILITY.


NDZ001>003-009>011-017-211500-
NORTHWEST NORTH DAKOTA

CITY           SKY/WX    TMP DP  RH WIND       PRES   REMARKS
WILLISTON      CLEAR     15  13  91 CALM      29.49F
MINOT          CLEAR     17  14  88 SE3       29.55F
MINOT AFB      CLEAR     12  12  99 S5        29.54F WCI   5
$$

NDZ018>021-031>035-040>046-211500-
SOUTHWEST NORTH DAKOTA

CITY           SKY/WX    TMP DP  RH WIND       PRES   REMARKS
BISMARCK       PTCLDY    17  15  92 E6        29.60F WCI   9
DICKINSON      CLEAR     24  19  81 S8        29.49F WCI  15
GARRISON         N/A     20  18  92 SE5       29.55F WCI  13
HETTINGER ARPT CLEAR     24  19  81 SE5       29.54F WCI  18
$$

NDZ004>008-012>016-024-026-027-054-211500-
NORTHEAST NORTH DAKOTA

CITY           SKY/WX    TMP DP  RH WIND       PRES   REMARKS
GRAND FORKS    CLOUDY    30  29  96 S16       29.70F WCI  19
GRND FRKS AFB  CLOUDY    29  29 100 S14       29.70S WCI  18
DEVILS LAKE    CLEAR     18   9  68 SE5       29.60F WCI  11
$$

NDZ022-023-025-028>030-036>039-047>053-211500-
SOUTHEAST NORTH DAKOTA

CITY           SKY/WX    TMP DP  RH WIND       PRES   REMARKS
FARGO          CLOUDY    32  28  85 S15       29.75F
JAMESTOWN      FOG       24  21  88 S9        29.65F VSB 1   WCI  14
$$



USA.gov is the U.S. government's official web portal to all federal, state and local government web resources and services.